This demonstration page uses our WeatherBlox Daily Observations layout. Learn more.

Left ArrowRight Arrow

Hourly Observations for November 16, 2020

Temp ( °F °C ) Dew Point ( °F °C ) Humidity (%) Winds ( mph kmh ) Pressure ( in mb ) Visibility ( mi km ) Precip ( " mm )
12:54 am 00:54 Clear 24 -4.4 17 -8.3 75 75 Calm 30.11 1020 10 16.0934 0 0
1:54 am 01:54 Clear 25 -3.9 18 -7.8 75 75 Calm 30.11 1020 10 16.0934 0 0
2:54 am 02:54 Clear 21 -6.1 16 -8.9 81 81 Calm 30.11 1020 10 16.0934 0 0
3:54 am 03:54 Clear 24 -4.4 17 -8.3 75 75 Calm 30.1 1019 10 16.0934 0 0
4:54 am 04:54 Clear 29 -1.7 18 -7.8 63 63 SW 5 7 30.1 1019 10 16.0934 0 0
5:54 am 05:54 Clear 27 -2.8 18 -7.8 69 69 SSW 5 7 30.13 1020 10 16.0934 0 0
6:54 am 06:54 Clear 25 -3.9 18 -7.8 75 75 S 5 7 30.13 1020 10 16.0934 0 0
7:54 am 07:54 Sunny 31 -0.6 21 -6.1 67 67 SSW 5 7 30.16 1022 10 16.0934 0 0
8:54 am 08:54 Sunny 35 1.7 24 -4.4 64 64 Calm 30.2 1023 10 16.0934 0 0
9:54 am 09:54 Sunny 48 8.9 27 -2.8 44 44 WNW 9 15 30.22 1023 10 16.0934 0 0
10:54 am 10:54 Sunny 54 12.2 28 -2.2 37 37 NNW 13 20 30.24 1024 10 16.0934 0 0
11:54 am 11:54 Sunny 60 15.6 28 -2.2 30 30 NNW 15 24 30.24 1024 10 16.0934 0 0
12:54 pm 12:54 Sunny 61 16.1 27 -2.8 27 27 NW 14 22 30.24 1024 10 16.0934 0 0
1:54 pm 13:54 Sunny 62 16.7 26 -3.3 25 25 WNW 15 24 30.23 1024 10 16.0934 0 0
2:54 pm 14:54 Sunny 61 16.1 25 -3.9 25 25 WNW 17 28 30.25 1024 10 16.0934 0 0
3:54 pm 15:54 Sunny 60 15.6 26 -3.3 27 27 NW 10 17 30.27 1025 10 16.0934 0 0
4:54 pm 16:54 Sunny 56 13.3 22 -5.6 27 27 NW 6 9 30.29 1026 10 16.0934 0 0
5:54 pm 17:54 Clear 48 8.9 24 -4.4 39 39 WNW 6 9 30.32 1027 10 16.0934 0 0
6:54 pm 18:54 Clear 41 5 23 -5 49 49 W 3 6 30.36 1028 10 16.0934 0 0
7:54 pm 19:54 Clear 34 1.1 22 -5.6 61 61 Calm 30.38 1029 10 16.0934 0 0
8:54 pm 20:54 Clear 35 1.7 22 -5.6 59 59 W 5 7 30.4 1029 10 16.0934 0 0
9:54 pm 21:54 Clear 31 -0.6 22 -5.6 69 69 N 9 15 30.41 1030 10 16.0934 0 0
10:54 pm 22:54 Clear 35 1.7 24 -4.4 64 64 WNW 5 7 30.41 1030 10 16.0934 0 0
11:54 pm 23:54 Clear 31 -0.6 23 -5 72 72 S 3 6 30.42 1030 10 16.0934 0 0

Powered by AerisWeather